Location: Ergnies
(50.0854°N, 2.0375°E)
Time: 09:08:51
(UTC+00:00)

Cosmos 1844 Rocket - Pass Details

Date: 14 January 2026
Orbit: 822 x 845 km, 71.0° (Epoch: 18 February)

Event Time Altitude Azimuth Distance (km) Brightness Sun altitude
Exits shadow 04:47:38 27° 357° (N) 1,587 4.0 -27.8°
Drops below altitude 10° 04:50:32 10° 19° (NNE) 2,474 5.3 -27.3°
Sets 04:53:11 0° 27° (NNE) 3,414 6.2 -26.9°
